Tiempo cada hora Barlogi

Hoy, 8 Marzo, Lunes

Tiempo Temperatura Precipitaciones Viento Presión Humedad
00:00 0°C° 0.2 mm 3 mps 757 mmHg 92%
01:00 0°C° 0 mm 3 mps 757 mmHg 96%
02:00 0°C° 0.1 mm 3 mps 757 mmHg 95%
03:00 -1°C° 0.1 mm 2 mps 757 mmHg 95%
04:00 +1°C° 0.1 mm 1 mps 757 mmHg 94%
05:00 -2°C° 0 mm 2 mps 758 mmHg 89%
06:00 -3°C° 0 mm 2 mps 758 mmHg 85%
07:00 -1°C° 0 mm 1 mps 758 mmHg 82%
08:00 -1°C° 0 mm 2 mps 759 mmHg 71%
09:00 +1°C° 0 mm 2 mps 759 mmHg 59%
10:00 +3°C° 0 mm 2 mps 760 mmHg 48%
11:00 +3°C° 0 mm 2 mps 760 mmHg 45%
12:00 +4°C° 0 mm 2 mps 760 mmHg 42%
13:00 +5°C° 0 mm 2 mps 760 mmHg 39%
14:00 +4°C° 0 mm 2 mps 760 mmHg 40%
15:00 +4°C° 0 mm 2 mps 760 mmHg 40%
16:00 +4°C° 0 mm 2 mps 760 mmHg 40%
17:00 +3°C° 0 mm 2 mps 760 mmHg 46%
18:00 +3°C° 0 mm 1 mps 760 mmHg 52%
19:00 +1°C° 0 mm 1 mps 761 mmHg 57%
20:00 +1°C° 0 mm 1 mps 761 mmHg 59%
21:00 0°C° 0 mm 1 mps 761 mmHg 61%
22:00 0°C° 0 mm 1 mps 761 mmHg 62%
23:00 0°C° 0 mm 1 mps 761 mmHg 63%

Mañana, 9 Marzo, Martes

Tiempo Temperatura Precipitaciones Viento Presión Humedad
00:00 0°C° 0 mm 1 mps 761 mmHg 63%
01:00 -1°C° 0 mm 1 mps 761 mmHg 64%
02:00 0°C° 0 mm 1 mps 760 mmHg 64%
03:00 0°C° 0 mm 1 mps 760 mmHg 63%
04:00 0°C° 0 mm 1 mps 760 mmHg 63%
05:00 0°C° 0 mm 1 mps 760 mmHg 62%
06:00 0°C° 0 mm 1 mps 760 mmHg 62%
07:00 0°C° 0 mm 1 mps 760 mmHg 61%
08:00 +1°C° 0 mm 1 mps 760 mmHg 56%
09:00 +2°C° 0 mm 1 mps 760 mmHg 51%
10:00 +3°C° 0 mm 1 mps 760 mmHg 45%
11:00 +4°C° 0 mm 1 mps 759 mmHg 41%
12:00 +5°C° 0 mm 1 mps 759 mmHg 36%
13:00 +6°C° 0 mm 1 mps 759 mmHg 32%
14:00 +6°C° 0 mm 1 mps 759 mmHg 33%
15:00 +6°C° 0 mm 1 mps 758 mmHg 33%
16:00 +5°C° 0 mm 1 mps 758 mmHg 34%
17:00 +4°C° 0 mm 1 mps 758 mmHg 39%
18:00 +2°C° 0 mm 1 mps 758 mmHg 44%
19:00 +1°C° 0 mm 1 mps 758 mmHg 49%
20:00 +1°C° 0 mm 1 mps 759 mmHg 51%
21:00 0°C° 0 mm 1 mps 759 mmHg 53%
22:00 0°C° 0 mm 1 mps 759 mmHg 55%
23:00 0°C° 0 mm 1 mps 759 mmHg 56%

Pasado mañana, 10 Marzo, Miércoles

Tiempo Temperatura Precipitaciones Viento Presión Humedad
00:00 0°C° 0 mm 1 mps 759 mmHg 57%
01:00 -1°C° 0 mm 1 mps 759 mmHg 58%
02:00 -1°C° 0 mm 1 mps 759 mmHg 57%
03:00 -1°C° 0 mm 1 mps 759 mmHg 57%
04:00 -2°C° 0 mm 0 mps 758 mmHg 57%
05:00 -1°C° 0 mm 1 mps 759 mmHg 56%
06:00 0°C° 0 mm 1 mps 759 mmHg 55%
07:00 0°C° 0 mm 1 mps 759 mmHg 54%
08:00 +2°C° 0 mm 1 mps 759 mmHg 48%
09:00 +3°C° 0 mm 1 mps 759 mmHg 43%
10:00 +5°C° 0 mm 1 mps 759 mmHg 37%
11:00 +6°C° 0 mm 1 mps 759 mmHg 34%
12:00 +7°C° 0 mm 1 mps 759 mmHg 32%
13:00 +8°C° 0 mm 1 mps 759 mmHg 29%
14:00 +7°C° 0 mm 1 mps 759 mmHg 30%
15:00 +7°C° 0 mm 1 mps 759 mmHg 31%
16:00 +7°C° 0 mm 1 mps 759 mmHg 32%
17:00 +5°C° 0 mm 1 mps 759 mmHg 38%
18:00 +2°C° 0 mm 2 mps 759 mmHg 45%
19:00 +1°C° 0 mm 2 mps 759 mmHg 51%
20:00 -1°C° 0 mm 2 mps 759 mmHg 56%
21:00 -1°C° 0 mm 2 mps 759 mmHg 60%
22:00 -1°C° 0 mm 2 mps 759 mmHg 65%
23:00 -1°C° 0 mm 2 mps 759 mmHg 68%

11 Marzo, Jueves

Tiempo Temperatura Precipitaciones Viento Presión Humedad
00:00 -1°C° 0 mm 2 mps 759 mmHg 71%
01:00 -2°C° 0 mm 3 mps 758 mmHg 75%
02:00 -1°C° 0 mm 3 mps 758 mmHg 75%
03:00 -1°C° 0 mm 3 mps 757 mmHg 76%
04:00 -1°C° 0 mm 3 mps 756 mmHg 77%
05:00 -1°C° 0 mm 3 mps 756 mmHg 77%
06:00 -1°C° 0 mm 4 mps 755 mmHg 77%
07:00 -1°C° 0 mm 4 mps 755 mmHg 77%
08:00 +1°C° 0 mm 4 mps 754 mmHg 74%
09:00 +2°C° 0 mm 5 mps 754 mmHg 70%
10:00 +3°C° 0 mm 5 mps 753 mmHg 67%
11:00 +3°C° 0.1 mm 6 mps 752 mmHg 70%
12:00 +4°C° 0.1 mm 6 mps 751 mmHg 72%
13:00 +4°C° 0.1 mm 7 mps 751 mmHg 75%
14:00 +4°C° 0.2 mm 6 mps 750 mmHg 77%
15:00 +4°C° 0.2 mm 6 mps 749 mmHg 78%
16:00 +5°C° 0.2 mm 5 mps 748 mmHg 80%
17:00 +5°C° 0.3 mm 5 mps 748 mmHg 81%
18:00 +6°C° 0.3 mm 5 mps 747 mmHg 82%
19:00 +6°C° 0.3 mm 5 mps 747 mmHg 84%
20:00 +6°C° 0.9 mm 5 mps 747 mmHg 86%
21:00 +6°C° 0.9 mm 5 mps 747 mmHg 88%
22:00 +6°C° 0.9 mm 5 mps 747 mmHg 90%
23:00 +6°C° 0.1 mm 5 mps 747 mmHg 90%

12 Marzo, Viernes

Tiempo Temperatura Precipitaciones Viento Presión Humedad
00:00 +6°C° 0.1 mm 5 mps 747 mmHg 89%
01:00 +5°C° 0.1 mm 5 mps 748 mmHg 88%
02:00 +5°C° 0.1 mm 5 mps 748 mmHg 86%
03:00 +4°C° 0.1 mm 6 mps 748 mmHg 83%
04:00 +3°C° 0.1 mm 6 mps 749 mmHg 81%
05:00 +3°C° 0 mm 6 mps 749 mmHg 80%
06:00 +3°C° 0 mm 6 mps 750 mmHg 80%
07:00 +2°C° 0 mm 6 mps 750 mmHg 79%
08:00 +3°C° 0 mm 6 mps 751 mmHg 75%
09:00 +4°C° 0 mm 6 mps 751 mmHg 71%
10:00 +5°C° 0 mm 7 mps 752 mmHg 67%
11:00 +6°C° 0 mm 7 mps 752 mmHg 63%
12:00 +7°C° 0 mm 6 mps 752 mmHg 59%
13:00 +8°C° 0 mm 6 mps 752 mmHg 55%
14:00 +8°C° 0 mm 6 mps 752 mmHg 55%
15:00 +8°C° 0 mm 5 mps 752 mmHg 54%
16:00 +8°C° 0 mm 5 mps 752 mmHg 54%
17:00 +7°C° 0 mm 4 mps 752 mmHg 59%
18:00 +7°C° 0 mm 3 mps 752 mmHg 64%
19:00 +5°C° 0 mm 3 mps 752 mmHg 70%
20:00 +4°C° 0 mm 3 mps 751 mmHg 70%
21:00 +4°C° 0 mm 4 mps 751 mmHg 70%
22:00 +4°C° 0 mm 4 mps 751 mmHg 71%
23:00 +4°C° 0 mm 4 mps 751 mmHg 70%

13 Marzo, Sábado

Tiempo Temperatura Precipitaciones Viento Presión Humedad
00:00 +3°C° 0 mm 5 mps 750 mmHg 70%
01:00 +5°C° 0 mm 5 mps 750 mmHg 70%
02:00 +3°C° 0.3 mm 5 mps 750 mmHg 75%
03:00 +4°C° 0.3 mm 4 mps 750 mmHg 81%
04:00 +3°C° 0.3 mm 4 mps 750 mmHg 87%
05:00 +3°C° 0.1 mm 4 mps 750 mmHg 87%
06:00 +3°C° 0.1 mm 4 mps 750 mmHg 88%
07:00 +2°C° 0.1 mm 5 mps 751 mmHg 88%
08:00 +3°C° 0.1 mm 5 mps 751 mmHg 85%
09:00 +3°C° 0.1 mm 5 mps 751 mmHg 82%
10:00 +3°C° 0.1 mm 5 mps 751 mmHg 78%
11:00 +5°C° 0.1 mm 6 mps 751 mmHg 71%
12:00 +7°C° 0.1 mm 6 mps 751 mmHg 64%
13:00 +8°C° 0.1 mm 6 mps 751 mmHg 57%
14:00 +8°C° 0.1 mm 6 mps 750 mmHg 59%
15:00 +8°C° 0.1 mm 6 mps 750 mmHg 60%
16:00 +8°C° 0.1 mm 6 mps 749 mmHg 61%
17:00 +7°C° 0.2 mm 6 mps 749 mmHg 68%
18:00 +5°C° 0.2 mm 6 mps 748 mmHg 75%
19:00 +5°C° 0.2 mm 6 mps 748 mmHg 82%
20:00 +5°C° 0.2 mm 6 mps 747 mmHg 80%
21:00 +5°C° 0.2 mm 6 mps 747 mmHg 78%
22:00 +5°C° 0.2 mm 6 mps 747 mmHg 77%
23:00 +5°C° 0.4 mm 6 mps 746 mmHg 80%
Mostrar más

Necesitamos Su Consentimiento

Meteoprog y nuestros Proveedores de Servicios pueden almacenar y acceder a sus datos personales como cookies, identificadores de dispositivo u otras tecnologías similares de su dispositivo y procesar dichos datos para personalizar contenido y anuncios, además de ofrecer funciones de redes sociales y analizar el tráfico.

  • Almacenar y/o acceder a información en su dispositivo

    Se puede almacenar o acceder a cookies, identificadores de dispositivo u otra información de su dispositivo para los fines anteriormente indicados.

  • Anuncios y contenido personalizados, medición de anuncios y contenido, percepciones del público, y desarrollo de productos

    Los anuncios y el contenido pueden personalizarse en base a su perfil. Se pueden añadir más datos para personalizar mejor los anuncios y contenidos. Se puede medir el rendimiento de los anuncios y contenidos. Se puede obtener la percepción sobre el público que ha visto los anuncios y contenidos. Dichos datos pueden usarse para desarrollar o mejorar la experiencia del usuario, sistemas y software.

Al hacer clic en ‘Estoy De Acuerdo’ usted permitirá el uso de las cookies, identificadores de dispositivo, balizas web u otras tecnologías similares indicadas. Su configuración puede cambiarse desde el navegador de su dispositivo.

Para ciertos fines, los intereses legítimos pueden ser considerados por encima del consentimiento. Puede leer más sobre ello en nuestra Política de Privacidad y Cookies.